Temperature
8 8 9 9 10 10 10 11 11 10 11 10 10 10 9 9 9 8 9 9 9 9 9 8 7 5 5 5 5 5 4 4 3 2 2 1 1 0 -0 -1 -1 -1 -2
7 7 8 8 8 9 9 10 10 10 10 10 9 9 8 8 8 8 8 8 8 8 7 6 5 4 4 4 4 3 3 3 2 1 1 0 -0 -1 -1 -1 -2 -2 -2
6 6 7 7 7 8 8 8 9 9 9 8 8 8 7 7 7 8 7 7 7 6 5 4 4 3 3 3 3 2 2 1 1 -0 -1 -1 -2 -2 -2 -3 -3 -4 -4
5 6 6 6 6 7 7 7 8 7 8 8 7 7 7 7 7 7 6 6 5 4 3 2 2 2 2 2 2 1 1 -0 -1 -2 -2 -3 -4 -4 -4 -5 -6 -6 -6
4 5 5 5 5 6 6 6 6 6 7 6 6 6 6 6 5 5 4 4 3 2 1 1 1 1 1 1 1 0 -1 -2 -2 -3 -4 -5 -6 -6 -6 -7 -7 -7 -7
3 3 3 4 4 4 5 5 5 5 5 5 5 4 4 3 3 2 2 1 1 1 1 1 1 1 1 0 -0 -1 -2 -3 -4 -5 -6 -6 -7 -7 -7 -8 -8 -8 -8
2 2 2 3 3 3 3 3 3 3 3 3 3 2 2 1 0 -0 -0 0 1 1 1 1 0 0 -0 -1 -2 -2 -3 -4 -5 -6 -7 -7 -7 -8 -8 -8 -8 -8 -8
1 1 1 1 2 2 1 1 1 1 1 1 0 0 -0 -1 -1 -0 -0 0 0 0 0 -0 -1 -1 -2 -2 -2 -3 -4 -5 -6 -7 -8 -8 -8 -8 -8 -8 -8 -9 -8
0 0 1 0 0 0 1 0 -0 -0 -0 -1 -1 -1 -1 -1 -1 -1 -1 -0 -1 -1 -2 -2 -2 -2 -3 -3 -4 -5 -6 -7 -7 -6 -7 -7 -7 -8 -8 -9 -8 -9 -9
0 0 -0 -0 -0 -0 -0 -0 -1 -1 -1 -1 -1 -1 -1 -1 -1 -2 -2 -2 -2 -2 -2 -3 -3 -3 -4 -6 -6 -7 -7 -7 -7 -7 -7 -7 -7 -7 -7 -8 -8 -9 -9
0 0 0 -0 -0 -0 -0 -0 -1 -1 -1 -1 -1 -2 -2 -2 -2 -2 -3 -3 -3 -4 -4 -4 -5 -5 -6 -7 -7 -8 -8 -7 -8 -7 -7 -7 -7 -7 -8 -8 -8 -8 -8
0 0 0 0 -0 -0 -0 -0 -1 -1 -1 -1 -1 -2 -2 -3 -4 -4 -4 -4 -4 -5 -5 -6 -7 -7 -7 -7 -7 -8 -7 -8 -8 -7 -7 -7 -7 -7 -7 -7 -7 -8 -8
1 1 0 0 -0 -0 -0 -0 -1 -1 -1 -1 -2 -2 -3 -3 -4 -4 -5 -5 -6 -6 -7 -7 -7 -7 -7 -7 -7 -7 -7 -8 -8 -8 -8 -7 -7 -7 -7 -7 -7 -7 -7
1 1 0 0 -0 -0 -0 -1 -1 -1 -2 -2 -3 -3 -4 -5 -5 -6 -7 -7 -7 -8 -8 -8 -8 -8 -7 -8 -8 -8 -8 -8 -8 -8 -8 -7 -7 -7 -7 -7 -7 -7 -7
1 1 0 -0 -0 -1 -1 -1 -2 -2 -2 -3 -4 -4 -5 -6 -7 -7 -8 -8 -8 -8 -8 -8 -8 -8 -8 -8 -8 -8 -8 -8 -8 -8 -8 -8 -8 -8 -7 -7 -7 -7 -7
0 0 -0 -0 -1 -1 -2 -2 -2 -3 -3 -4 -4 -5 -6 -6 -7 -7 -8 -8 -8 -8 -8 -9 -9 -9 -8 -8 -8 -8 -8 -8 -8 -8 -8 -8 -8 -8 -8 -7 -8 -7 -7
0 -0 -0 -1 -1 -2 -2 -3 -3 -4 -4 -5 -5 -6 -6 -7 -7 -8 -8 -8 -8 -8 -9 -9 -8 -8 -8 -8 -8 -8 -8 -8 -8 -8 -8 -8 -8 -8 -8 -8 -8 -7 -7
-0 -0 -1 -1 -2 -2 -3 -3 -4 -4 -5 -5 -6 -7 -7 -8 -8 -8 -8 -8 -9 -9 -9 -8 -8 -8 -8 -8 -8 -8 -8 -8 -8 -8 -8 -8 -8 -8 -8 -8 -8 -8 -7
-0 -1 -1 -2 -2 -2 -3 -3 -4 -5 -5 -6 -7 -7 -8 -8 -8 -9 -9 -9 -9 -9 -9 -8 -8 -8 -8 -8 -8 -8 -8 -8 -8 -8 -8 -8 -8 -8 -8 -8 -8 -8 -8
-1 -1 -1 -2 -2 -3 -3 -4 -4 -5 -6 -7 -7 -8 -8 -8 -9 -9 -9 -9 -9 -9 -9 -8 -8 -8 -8 -8 -8 -8 -8 -8 -8 -8 -8 -8 -8 -8 -8 -8 -8 -8 -8
-1 -1 -2 -2 -2 -3 -3 -4 -5 -6 -6 -7 -8 -8 -9 -9 -9 -9 -9 -9 -9 -9 -8 -8 -8 -8 -8 -8 -8 -8 -8 -8 -8 -8 -8 -8 -8 -8 -8 -8 -8 -8 -8
-1 -2 -2 -2 -3 -3 -4 -4 -5 -6 -7 -8 -8 -9 -9 -9 -9 -9 -9 -9 -9 -8 -8 -8 -8 -8 -8 -8 -8 -8 -8 -8 -8 -8 -8 -8 -8 -8 -8 -8 -8 -8 -8
-1 -2 -2 -2 -3 -3 -4 -5 -6 -7 -8 -8 -9 -9 -9 -9 -9 -9 -9 -9 -8 -8 -8 -8 -7 -7 -7 -7 -8 -8 -8 -8 -8 -8 -8 -8 -8 -8 -8 -8 -8 -8 -8
-2 -2 -2 -3 -3 -4 -4 -5 -6 -7 -8 -8 -9 -9 -9 -9 -9 -9 -8 -8 -8 -8 -8 -8 -7 -7 -7 -7 -8 -8 -8 -8 -8 -8 -8 -8 -8 -8 -8 -8 -8 -8 -8
-2 -2 -2 -3 -3 -4 -5 -6 -7 -7 -8 -8 -9 -9 -9 -9 -9 -9 -8 -8 -8 -8 -7 -8 -7 -7 -7 -7 -8 -8 -8 -8 -8 -8 -8 -9 -8 -8 -8 -8 -8 -8 -8
-2 -2 -3 -3 -4 -4 -5 -6 -7 -7 -8 -8 -8 -9 -9 -9 -8 -8 -8 -8 -7 -7 -7 -7 -7 -7 -7 -7 -8 -8 -8 -8 -8 -8 -8 -8 -8 -8 -8 -8 -8 -8 -8
Wind_Speed
11 11 10 10 9 9 8 8 8 7 7 7 8 9 10 10 10 10 9 11 11 10 10 11 10 9 7 6 6 5 5 3 2 1 1 2 4 6 8 10 12 13 14
11 11 10 10 9 8 7 7 6 5 4 5 6 7 8 9 10 10 11 11 12 13 12 12 11 9 9 7 6 5 4 3 2 3 4 5 6 7 8 10 12 13 14
11 10 9 9 8 7 6 4 2 1 2 4 5 6 7 8 9 9 11 11 12 12 12 12 11 11 9 7 6 5 4 3 3 4 5 5 6 6 9 10 11 12 14
11 10 9 9 8 7 5 4 3 3 4 5 6 7 7 8 9 11 12 12 12 12 11 11 10 9 8 7 5 5 4 4 4 5 6 6 7 7 8 9 9 9 10
10 10 10 9 8 8 7 7 7 8 8 9 10 10 10 9 10 12 13 14 14 13 11 9 8 8 8 6 4 4 5 4 5 6 7 7 7 7 7 8 10 10 11
9 10 10 10 10 10 10 10 10 11 11 11 11 11 11 9 16 17 15 13 12 12 10 8 7 7 6 4 4 6 7 6 6 6 7 8 9 9 8 9 10 11 11
9 10 10 10 10 10 10 11 12 11 12 12 12 12 13 15 19 18 17 12 11 10 9 7 5 5 4 2 2 4 6 7 9 8 10 10 10 9 10 11 12 12 13
9 9 9 9 10 10 11 11 11 10 11 11 12 12 13 15 19 19 18 12 10 9 7 6 5 4 2 2 3 4 5 6 7 7 8 9 9 10 11 11 12 14 15
9 9 9 9 10 10 11 11 10 10 11 10 10 12 13 14 17 16 13 8 8 7 5 4 3 1 1 3 3 4 6 6 6 9 12 14 15 16 15 11 11 11 12
8 8 9 9 10 10 10 10 10 10 10 10 11 10 10 10 12 11 9 5 6 5 4 3 2 2 2 3 3 4 6 7 8 8 9 11 12 13 13 11 9 9 9
7 8 9 9 9 9 10 9 9 10 10 10 10 8 7 7 9 9 6 4 4 3 2 1 2 3 5 4 4 4 7 9 9 9 9 9 8 7 7 8 8 8 10
7 8 9 9 8 8 9 9 8 9 9 8 7 7 6 6 7 7 7 6 4 2 1 1 2 4 5 6 6 7 9 9 7 7 8 8 7 7 7 8 11 13 14
8 8 8 8 8 7 8 8 7 6 5 5 5 4 4 4 5 7 6 5 4 2 1 2 3 5 6 5 5 7 7 6 6 7 7 8 8 8 9 9 10 12 15
8 8 7 7 7 7 6 5 5 4 4 4 3 3 3 2 2 1 1 2 2 2 1 1 3 4 4 5 5 5 4 5 6 7 8 8 8 8 9 8 9 9 10
8 7 6 6 6 6 6 5 5 5 4 3 3 2 1 1 1 2 3 3 3 3 2 3 4 4 3 3 4 4 4 5 5 6 7 8 8 9 9 8 8 8 9
7 6 5 5 4 5 5 6 7 6 7 5 3 1 0 1 1 2 3 4 4 4 3 4 4 4 4 4 5 5 5 5 5 6 7 8 8 9 9 9 9 10 11
7 6 5 4 4 4 4 3 3 4 5 5 4 2 1 1 2 3 4 3 3 3 3 3 4 4 4 5 5 6 6 6 6 7 8 8 8 9 9 10 10 10 11
6 6 5 4 4 3 3 2 2 2 2 1 2 3 3 2 2 3 3 3 3 3 3 4 4 4 5 5 6 6 7 7 7 8 8 8 8 9 9 10 10 12 12
6 5 5 4 4 3 3 2 2 2 2 2 2 1 2 3 2 3 3 3 4 4 4 4 5 5 6 6 7 7 8 8 9 9 9 9 9 9 10 11 11 16 15
5 7 6 4 4 3 3 3 2 2 2 2 3 3 3 4 4 4 4 4 4 5 5 5 6 6 6 7 7 7 8 9 10 9 9 9 9 9 11 13 13 13 13
5 6 7 4 4 3 3 3 2 2 2 3 3 3 6 5 5 5 5 5 5 6 6 6 7 7 7 7 7 8 10 10 10 10 10 10 10 10 11 12 13 14 14
5 5 5 4 4 4 3 3 2 2 3 4 4 4 6 5 5 5 5 6 6 6 6 7 7 8 8 8 8 9 9 10 10 10 10 11 11 11 12 13 14 14 15
6 6 5 4 4 4 4 3 2 3 3 4 4 4 5 5 5 6 6 7 7 7 7 7 8 8 9 10 10 10 10 11 11 11 11 12 12 12 13 14 17 18 17
6 6 5 5 4 4 3 3 3 3 4 4 5 5 5 6 6 7 7 7 7 7 9 9 9 11 14 14 13 14 15 16 16 14 15 14 15 15 15 16 17 19 18
6 6 5 5 4 4 3 3 3 4 4 5 5 5 6 6 7 7 7 7 8 9 10 11 11 12 15 16 17 17 20 23 23 20 17 14 17 18 18 18 18 19 19
6 6 5 4 4 4 3 3 3 4 4 5 5 6 6 7 7 8 7 7 8 8 9 11 13 15 17 17 19 21 23 24 25 26 20 14 16 16 18 17 20 19 20
Wind_Direction
327 319 310 304 300 293 284 277 271 263 250 233 218 207 199 194 188 184 180 171 164 153 148 143 135 130 119 108 99 93 86 91 157 158 185 207 232 249 265 272 278 282 283
330 322 316 313 308 301 295 290 279 263 243 218 198 190 185 180 177 175 170 163 157 151 145 136 131 124 114 110 107 104 108 108 161 222 223 221 240 256 268 276 279 280 280
336 332 331 329 323 317 314 313 306 262 175 158 160 163 163 163 162 158 153 148 143 138 135 130 127 124 120 121 122 129 140 160 195 232 253 249 256 262 275 277 277 278 280
347 350 352 349 345 348 358 16 48 87 106 111 117 123 130 134 135 133 131 126 121 115 113 115 119 125 130 137 142 153 164 186 211 237 255 261 264 266 269 279 285 286 288
1 8 9 8 14 28 40 52 62 75 84 92 96 97 103 109 119 122 120 118 114 108 103 103 109 121 137 147 155 170 186 211 228 242 256 265 267 271 276 285 290 296 295
17 22 23 28 37 45 53 63 70 75 81 86 90 95 97 102 116 117 116 111 111 111 109 104 106 108 123 143 189 206 213 225 238 249 262 268 277 284 290 291 295 296 297
29 33 35 42 49 53 60 67 72 76 81 85 89 94 98 107 110 109 106 102 102 103 106 111 111 115 121 159 217 245 251 258 259 266 273 278 287 292 296 292 287 287 287
38 40 42 49 57 61 66 68 70 74 79 84 87 90 94 97 98 97 96 92 93 96 103 116 125 138 165 212 229 242 253 256 263 269 278 285 287 288 284 283 286 286 285
44 45 49 57 64 67 68 68 70 76 76 76 78 82 86 88 90 94 96 97 103 111 122 124 123 128 193 269 265 262 270 273 269 277 285 286 286 285 285 285 282 281 284
49 54 58 65 71 72 73 72 71 75 76 76 75 77 89 99 104 108 110 113 118 121 119 108 69 3 338 317 291 277 284 295 299 293 286 283 282 281 278 268 268 269 275
60 66 67 69 73 77 78 78 82 84 83 82 82 79 87 106 118 110 104 99 102 102 89 54 42 348 332 337 318 292 296 300 296 293 292 290 286 280 276 270 264 257 260
76 73 71 72 77 84 89 89 91 95 95 96 97 93 84 86 95 98 89 78 63 52 28 0 347 336 338 332 313 305 301 297 288 286 285 287 290 292 290 284 275 264 256
93 86 84 84 83 88 94 98 97 97 100 103 103 101 94 82 78 71 62 51 32 357 354 359 350 341 321 304 302 304 299 283 280 280 282 287 290 291 290 286 279 270 265
107 101 97 94 90 86 82 82 87 89 96 101 103 107 110 109 94 77 37 6 344 324 306 325 318 317 298 298 303 290 277 280 285 283 287 290 293 289 284 285 288 295 291
118 112 106 98 97 89 79 70 73 65 60 85 100 111 124 134 56 6 335 334 335 336 309 300 307 311 308 310 303 298 292 285 282 284 288 290 291 290 289 290 287 288 281
132 129 122 117 111 109 109 98 77 82 89 84 89 92 36 353 21 355 347 350 339 337 297 295 302 311 317 317 314 310 306 298 292 289 286 284 287 289 291 290 284 281 282
149 145 140 141 141 141 140 143 137 105 82 67 47 39 18 16 4 342 344 342 328 313 286 294 302 307 308 305 302 300 297 295 292 284 280 281 282 283 285 287 287 285 283
153 151 154 156 160 161 161 168 184 205 216 197 28 8 358 347 346 342 345 310 283 282 289 290 294 296 296 295 294 293 293 293 288 283 281 279 277 278 281 283 283 283 286
160 161 161 157 159 161 161 171 185 206 236 253 265 274 324 303 295 319 320 296 294 290 287 285 285 286 286 285 285 285 285 285 285 284 281 279 277 276 277 279 282 284 285
167 163 160 160 163 169 178 191 205 222 242 262 276 290 299 288 284 292 294 288 283 282 282 282 282 281 281 281 281 281 282 282 284 281 281 280 279 276 276 279 280 283 284
161 164 168 168 178 184 192 203 215 236 259 275 282 291 298 298 291 292 292 286 281 280 280 281 282 281 278 277 277 277 279 280 281 281 281 280 279 278 278 278 280 281 282
165 168 176 182 183 188 194 201 220 248 270 281 289 291 295 288 282 284 284 282 280 277 277 278 278 277 275 273 274 276 276 277 279 279 279 279 279 278 279 280 281 283 284
169 173 177 182 185 189 189 207 232 257 274 281 286 289 287 283 282 281 281 282 282 280 278 274 274 274 273 270 266 265 268 272 275 278 281 282 281 281 281 281 282 285 286
176 180 182 181 184 194 206 224 241 260 273 279 281 281 282 282 282 282 282 281 281 279 276 274 271 272 274 276 274 269 265 267 272 273 272 272 276 279 279 280 283 286 289
179 183 184 185 190 198 211 228 246 260 269 274 277 280 281 282 282 282 281 279 280 278 278 278 275 275 276 276 275 275 276 279 281 279 276 274 277 278 282 285 288 291 293
181 183 184 185 191 199 212 232 247 258 265 271 274 276 278 279 280 281 281 280 281 282 282 282 277 279 281 283 282 282 285 288 290 291 290 285 284 285 288 290 293 294 295
Height
1455 1453 1452 1451 1450 1449 1448 1448 1448 1448 1448 1448 1448 1449 1450 1451 1452 1454 1455 1458 1460 1462 1465 1467 1469 1472 1475 1478 1480 1483 1484 1486 1488 1488 1489 1488 1488 1487 1485 1483 1481 1479 1476
1450 1448 1447 1446 1444 1444 1443 1442 1442 1442 1442 1442 1442 1443 1444 1445 1447 1448 1450 1452 1454 1456 1458 1461 1464 1467 1470 1473 1476 1478 1480 1482 1483 1483 1482 1482 1481 1480 1478 1476 1474 1472 1469
1447 1444 1443 1441 1440 1439 1438 1437 1437 1437 1437 1437 1438 1439 1440 1441 1442 1443 1445 1446 1448 1451 1454 1457 1460 1464 1467 1470 1473 1475 1476 1477 1477 1477 1476 1475 1474 1473 1471 1469 1467 1465 1462
1443 1441 1439 1438 1436 1435 1434 1434 1433 1434 1434 1434 1435 1436 1437 1438 1439 1439 1441 1442 1445 1448 1452 1456 1460 1463 1466 1468 1470 1471 1471 1472 1472 1471 1471 1469 1468 1466 1465 1463 1461 1459 1457
1441 1439 1437 1435 1434 1433 1432 1431 1432 1432 1432 1432 1433 1434 1435 1436 1436 1437 1439 1441 1444 1448 1452 1456 1459 1462 1464 1465 1466 1466 1467 1467 1467 1467 1466 1464 1463 1462 1461 1459 1457 1454 1451
1441 1438 1436 1434 1433 1432 1431 1431 1431 1431 1431 1432 1432 1433 1434 1435 1436 1438 1440 1442 1446 1449 1452 1456 1458 1460 1461 1461 1462 1462 1462 1463 1462 1462 1461 1460 1459 1458 1456 1454 1452 1449 1445
1441 1438 1436 1435 1433 1432 1432 1432 1432 1432 1432 1433 1433 1435 1436 1437 1439 1441 1444 1446 1448 1450 1453 1454 1456 1456 1457 1457 1458 1458 1458 1458 1458 1458 1457 1456 1455 1453 1451 1448 1447 1444 1441
1442 1440 1438 1437 1435 1435 1434 1434 1434 1435 1435 1436 1437 1439 1440 1442 1443 1445 1447 1448 1449 1450 1452 1452 1453 1453 1454 1454 1454 1454 1454 1453 1453 1452 1451 1450 1448 1447 1446 1444 1442 1439 1435
1445 1443 1441 1440 1439 1438 1438 1438 1438 1439 1439 1440 1441 1443 1444 1445 1446 1448 1449 1449 1449 1450 1450 1451 1452 1452 1451 1451 1451 1451 1450 1450 1448 1446 1445 1444 1442 1441 1440 1438 1436 1433 1429
1448 1447 1445 1444 1443 1443 1443 1443 1443 1444 1444 1445 1446 1447 1447 1448 1448 1449 1449 1450 1450 1450 1450 1450 1450 1449 1448 1448 1448 1448 1447 1446 1444 1442 1441 1439 1438 1436 1435 1433 1431 1428 1424
1453 1452 1451 1450 1449 1448 1448 1448 1449 1449 1449 1450 1450 1450 1450 1450 1450 1451 1451 1451 1450 1450 1449 1448 1447 1447 1446 1445 1445 1444 1443 1442 1440 1439 1437 1435 1434 1432 1430 1428 1426 1423 1419
1458 1456 1455 1455 1454 1454 1453 1453 1453 1454 1453 1453 1453 1453 1453 1452 1452 1451 1451 1450 1450 1449 1448 1446 1445 1444 1443 1442 1441 1440 1439 1438 1437 1435 1434 1432 1430 1428 1426 1423 1420 1417 1414
1461 1460 1459 1458 1458 1458 1457 1457 1457 1457 1456 1456 1455 1455 1454 1453 1453 1452 1450 1449 1448 1447 1446 1444 1443 1441 1440 1439 1438 1437 1436 1435 1434 1432 1431 1429 1426 1423 1420 1418 1415 1411 1408
1463 1462 1462 1461 1461 1460 1460 1460 1459 1459 1458 1457 1456 1455 1454 1453 1452 1451 1449 1448 1446 1445 1443 1442 1440 1439 1438 1437 1436 1434 1433 1432 1431 1429 1427 1425 1422 1419 1416 1413 1409 1405 1401
1464 1464 1464 1463 1463 1462 1462 1461 1460 1460 1459 1458 1456 1455 1454 1452 1451 1449 1448 1446 1445 1443 1441 1440 1439 1438 1436 1435 1434 1433 1431 1430 1428 1426 1423 1420 1417 1414 1411 1408 1404 1400 1395
1465 1464 1464 1464 1464 1463 1463 1462 1460 1460 1458 1456 1455 1454 1452 1451 1449 1447 1446 1444 1442 1441 1440 1439 1437 1436 1435 1433 1432 1431 1429 1427 1425 1423 1420 1416 1413 1409 1406 1403 1399 1395 1390
1464 1464 1464 1464 1464 1463 1462 1461 1460 1459 1457 1455 1453 1451 1450 1448 1447 1445 1443 1442 1440 1439 1438 1436 1435 1434 1432 1431 1430 1428 1426 1424 1422 1419 1416 1412 1408 1404 1401 1397 1393 1389 1384
1463 1464 1464 1464 1463 1463 1462 1460 1459 1457 1455 1453 1451 1449 1448 1446 1444 1443 1441 1440 1438 1437 1436 1434 1433 1431 1430 1429 1427 1425 1423 1421 1418 1414 1411 1407 1404 1400 1396 1392 1388 1383 1378
1462 1463 1463 1462 1462 1461 1460 1459 1457 1455 1453 1451 1449 1447 1445 1443 1442 1440 1438 1437 1436 1434 1433 1432 1430 1429 1427 1425 1423 1421 1419 1416 1413 1410 1406 1402 1398 1394 1390 1386 1381 1377 1372
1461 1461 1461 1461 1460 1459 1458 1456 1454 1452 1450 1448 1446 1444 1442 1441 1439 1437 1436 1434 1433 1431 1430 1429 1427 1425 1424 1421 1419 1417 1414 1411 1408 1404 1400 1396 1392 1388 1384 1379 1375 1370 1364
1459 1459 1459 1458 1458 1456 1455 1453 1452 1450 1447 1445 1443 1441 1439 1438 1436 1434 1433 1431 1430 1428 1427 1425 1423 1422 1420 1417 1415 1412 1409 1406 1402 1398 1394 1390 1386 1382 1377 1373 1368 1363 1357
1456 1456 1456 1456 1455 1454 1452 1450 1448 1446 1444 1442 1440 1438 1436 1434 1433 1431 1430 1428 1427 1425 1423 1421 1419 1417 1415 1413 1410 1406 1403 1400 1396 1392 1388 1384 1379 1375 1371 1366 1360 1355 1349
1453 1454 1454 1453 1452 1451 1449 1447 1445 1443 1441 1439 1437 1435 1433 1431 1430 1428 1426 1425 1423 1421 1419 1417 1415 1413 1411 1408 1405 1401 1398 1394 1390 1386 1382 1377 1373 1368 1364 1358 1353 1347 1341
1450 1451 1451 1450 1449 1448 1446 1444 1442 1440 1438 1435 1433 1432 1430 1428 1426 1425 1423 1421 1419 1417 1415 1413 1411 1408 1406 1403 1399 1396 1392 1388 1384 1380 1376 1371 1366 1361 1356 1351 1345 1340 1335
1447 1448 1448 1447 1446 1444 1443 1441 1438 1436 1434 1432 1431 1429 1427 1425 1423 1422 1420 1418 1416 1414 1411 1409 1406 1403 1401 1397 1394 1390 1387 1383 1379 1375 1370 1365 1360 1355 1350 1345 1339 1334 1328
1444 1444 1444 1443 1442 1441 1439 1437 1435 1433 1431 1430 1428 1426 1424 1422 1421 1419 1417 1414 1412 1410 1407 1405 1402 1399 1395 1392 1388 1385 1381 1377 1373 1370 1366 1360 1355 1350 1344 1339 1333 1327 1320